Погода в Павлодаре

Поиск расширенной информации на нашем сайте:

Полезная информация:

Новости сайта



02.01.2020
Опубликован Долгосрочный прогноз погоды по городам России и ближнего зарубежья на январь 2020 года.
Карты: Прогноз на январь и февраль 2020 года, Сравнение прогнозируемой аномалии приземной температуры воздуха на январь 2020 года по разным моделям.




Погода в Павлодаре - сегодня

Время (UTC), дата Ветер
(°,м/с) 
Видим.   Явления Облачность Т
(°С)
Тd
(°С)
f(%) Тe
(°С)
Pmin
(гПа)
dP
(гПа)
Po
(мм)
O2
(г/м3)
Тmin Tmax R s Состояние
почвы
12 09.08.20 150 (ЮВ) 20000 м    9/3 1000 м средняя, верхняя 
[Cu hum|Ac trans|Ci fib]
+31.6 +8.4 24 +32  999.9  -0.6  740  266           
15 09.08.20 290 (З) 20000 м    8/3 600 м средняя 
[Sc|Ac trans]
+25.9 +12.5 43 +31  1000.8  0.6  740  270    +32.7       
18 09.08.20 тихо ()   20000 м    8/0 средняя 
[Ac trans]
+22.7 +13.3 55 +29  1000.6  -0.4  740  273    +32.7       
21 09.08.20 190 (Ю) 20000 м    8/0 средняя 
[Ac trans]
+20.8 +13.7 64 +28  999.7  -0.9  740  274           
00 10.08.20 190 (Ю) 20000 м    6/0 средняя, верхняя 
[Ac trans|Ci fib]
+18.1 +14 77 +27  999.9  740  277           
03 10.08.20 220 (ЮЗ) 20000 м    4/0 средняя, верхняя 
[Ac trans|Ci fib]
+24.5 +14.7 54 +33  1000.1  0.6  740  271           
06 10.08.20 220 (ЮЗ) 20000 м    4/1 1000 м средняя, верхняя 
[Cu hum|Ac trans|Ci fib]
+29.9 +12.6 35 +35  999.2  -0.7  739  266  +18         
09 10.08.20 340 (С) 10 км  слаб. ливневой дождь  8/6 600 м кучево-дожд., средняя 
[Cb cap|Ac trans]
+29.8 +12.4 34 +35  998.7  -0.4  739  266           
12 10.08.20 230 (ЮЗ) 20000 м  {ливн. осадки}  8/4 600 м кучево-дожд., средняя, верхняя 
[Cb cap|Ac trans|Ci fib]
+30.3 +10 28 +32  998.5  -0.3  739  266           
15 10.08.20 тихо ()   20000 м    4/3 600 м кучево-дожд., средняя 
[Cb cap|Ac trans]
+24.1 +11.7 46 +28  998.6  -0.2  739  271    +32.3  0.0     
18 10.08.20 210 (ЮЗ) 20000 м  зарница  6/3 600 м кучево-дожд., верхняя 
[Cb cap|Ci fib]
+23.6 +10.7 44 +26  998  -0.6  738  272    +32.3  0.0     
21 10.08.20 200 (Ю) 20000 м    4/0 средняя, верхняя 
[Ac trans|Ci fib]
+19.7 +12.5 63 +26  997.3  -0.8  738  275           
00 11.08.20 тихо ()   20000 м    8/6 600 м кучево-дожд., средняя 
[Cb cap|Ac trans]
+19.7 +13.3 67 +26  997.2  -0.1  738  275           
03 11.08.20 210 (ЮЗ) 20000 м    9/8 600 м кучево-дожд., средняя, верхняя 
[Cb cap|Ac und|Ci fib]
+24.2 +12.4 48 +29  997.3  0.3  738  271           
06 11.08.20 270 (З) 20000 м  {ливн. осадки}  8/8 600 м кучево-дожд., средняя 
[Cb cap|Ac trans]
+28.5 +8.1 28 +29  997.3  0.2  738  268  +18.6         
09 11.08.20 230 (ЮЗ) 20000 м    3/3 1000 м кучево-дожд. 
[Cb cap]
+30.2 +4.8 20 +30  997.1  -0.1  738  267           
12 11.08.20 260 (З) 20000 м    8/6 600 м кучево-дожд., средняя 
[Cb cap|Ac trans]
+26.7 +9.2 33 +27  997.8  0.4  738  269           
15 11.08.20 тихо ()   20000 м    8/6 1000 м кучево-дожд., средняя 
[Cb cap|Ac trans]
+22.1 +10.3 47 +24  998.3  0.3  738  273    +31.1  0.0     
18 11.08.20 тихо ()   20000 м  зарница  5/4 600 м кучево-дожд., средняя 
[Cb cap|Ac trans]
+18.2 +9.5 57 +19  997.9  -0.5  738  277    +31.1  0.0     
21 11.08.20 220 (ЮЗ) 20000 м    8/0 средняя, верхняя 
[Ac trans|Ci fib]
+17.1 +10.4 65 +20  998.1  0.2  738  278           
00 12.08.20 220 (ЮЗ) 20000 м  гроза без осадков{ливн. осадки}  8/6 600 м кучево-дожд., средняя, верхняя 
[Cb cap|Ac trans|Ci fib]
+16.4 +15.2 93 +27  998.7  0.6  739  278           
03 12.08.20 230 (ЮЗ) 20000 м  {гроза}  9/4 600 м средняя 
[Sc|Ac trans]
+18.9 +13.5 71 +27  999.1  0.4  739  276         
06 12.08.20 200 (Ю) 20000 м  в посл. час ливневой дождь  8/4 600 м кучево-дожд., средняя 
[Cb cap|Ac trans]
+18.6 +16.6 88 +31  999.4  0.3  739  275  +16       
09 12.08.20 210 (ЮЗ) 20000 м  гроза без осадков{ливн. осадки}  8/6 600 м кучево-дожд., средняя 
[Cb cap|Ac trans]
+20 +16 78 +31  998.8  -0.5  739  274           
12 12.08.20 230 (ЮЗ) 20000 м  {гроза, ливн. осадки}  8/3 1000 м кучево-дожд., средняя, верхняя 
[Cb cap|Ac trans|Ci fib]
+23.5 +12.4 50 +28  997.9  -0.7  738  272           
Время (UTC), дата Ветер
(°,м/с) 
Видим.   Явления Облачность Т
(°С)
Тd
(°С)
f(%) Тe
(°С)
Pmin
(гПа)
dP
(гПа)
Po
(мм)
O2
(г/м3)
Тmin Tmax R s Состояние
почвы

Для получения пояснительной информации подведите курсор к названию столбца.

ПОГОДА в Павлодаре - архив

Всё, что Вы хотите узнать о погоде в Павлодаре - удобно и подробно!

Выберите нужную дату (начиная с 1 января 2019* года) и нажмите кнопку "Найти".
Будут отображены архивные сводки погоды по пункту Павлодар, начиная с указанной даты.


Отображать данные в формате CSV (для использования в таблицах Excel)


Внимание! Наш архив погоды предназначен исключительно для личного некоммерческого использования в познавательных целях. Если Вам необходимы официальные справки о состоянии погоды (для производственных, юридических, коммерческих и т.п. целей), обращайтесь в органы Росгидромета.

*Примечание: данная дата относится к архиву по метеостанциям СССР (Россия, СНГ, Балтия).
Архив по метеостанциям Зарубежной Европы и Азии (кроме Китая) хранится 10 дней, по другим регионам земного шара (Китай, Африка, Америка, Австралия, Океания) - 1 день.

Павлодар - район местоположения метеостанции


Название, широта, долгота, высота метеостанции:
Павлодар 52.1°ш. 77.1°д. 125 м над ур. моря [Казахстан]

Дополнительная информация

В oтличие oт бoльшинства пoгoдных сайтoв мы публикуем пoдрoбную метеoинфoрмацию в детальнoм прoфессиoнальнoм фoрмате.

Характеристики температуры и влажнoсти вoздуха измеряются на высoте 2 м в тени вдали oт зданий и деревьев.
Скoрoсть ветра измеряется на высoте 10 м (на урoвне рoста челoвека скoрoсть ветра ниже в 1.5-2 раза). Если метеoстанция нахoдится в гoрoде или в лесу, тo скoрoсть ветра занижена на 2-4 м/с пo сравнению с oткрытым местoм. Скoрoсть ветра над акватoриями крупных рек и oзёр, а также на вершинах хoлмoв на 2-5 м/с выше, чем в oбычных услoвиях.
Атмoсфернoе давление в разных тoчках местнoсти мoжет значительнo oтличаться oт давления на метеoстанции, в зависимoсти oт услoвий рельефа (при пoдъёме на 10 м давление пoнижается примернo на 1 мм рт.ст.).